Regional Weather Roundup
Issued by NWS

Home | Current Version | Previous Version | Graphics & Text | Print | Product List | Glossary On
Versions: 1 2 3 4 5 6 7 8 9 10 11 12 13 14 15 16 17 18 19 20 21 22 23 24 25 26 27 28 29 30 31 32 33 34 35 36 37 38 39 40 41 42 43 44 45 46 47 48 49 50
000
ASUS43 KMPX 022110
RWRMN
WEATHER ROUNDUP FOR MINNESOTA
NATIONAL WEATHER SERVICE TWIN CITIES/CHANHASSEN MN
400 PM CDT TUE JUN 02 2015


NOTE: "FAIR" INDICATES FEW OR NO CLOUDS BELOW 12,000 FEET WITH NO
SIGNIFICANT WEATHER AND/OR OBSTRUCTIONS TO VISIBILITY. N/A MEANS
CURRENT SKY AND/OR WEATHER CONDITIONS ARE NOT AVAILABLE.

MNZ060>063-068>070-022200-
   Twin Cities Metro

CITY           SKY/WX    TMP DP  RH WIND       PRES   REMARKS
TWIN CITIES    PTSUNNY   74  52  46 SE21G30   29.95F
ST PAUL        PTSUNNY   75  55  49 S18G24    29.96F
CRYSTAL        PTSUNNY   77  53  43 S16G25    29.94F
BLAINE         MOSUNNY   75  54  46 S20G25    29.95F
LAKEVILLE      PTSUNNY   73  54  49 S15G22    29.97F
EDEN PRAIRIE   PTSUNNY   73  53  49 S14G24    29.95F
SOUTH ST PAUL  PTSUNNY   76  52  43 S13G23    29.96F
LAKE ELMO      FAIR      73  54  49 S17       29.98F
$$
MNZ001>005-007-008-013>017-022>024-027-028-022200-
   Northwest Minnesota

CITY           SKY/WX    TMP DP  RH WIND       PRES   REMARKS
BEMIDJI        CLOUDY    71  54  55 S14G20    29.85F
HALLOCK        LGT RAIN  63  61  94 N5        29.82S
ROSEAU         CLOUDY    63  57  82 S5        29.83S
WARROAD        LGT RAIN  63  59  88 CALM      29.84F
THIEF RVR FALL CLOUDY    66  61  82 S3        29.83F
CROOKSTON      CLOUDY    70  61  73 S7        29.82S
FOSSTON        CLOUDY    66  59  77 CALM      29.84F
DETROIT LAKES  CLOUDY    70  55  60 S17G28    29.84S
MOORHEAD       PTSUNNY   75  59  57 S20G30    29.78F
PARK RAPIDS    CLOUDY    73  52  47 S15G25    29.85S
MAHNOMEN       CLOUDY    70  59  67 S12G17    29.82F
$$
MNZ006-009>011-018-025>026-022200-
   North Central Minnesota

CITY           SKY/WX    TMP DP  RH WIND       PRES   REMARKS
BAUDETTE       CLOUDY    62  57  83 SE3       29.85F
FLAG ISLAND    LGT RAIN  57  55  94 SE9       29.84R
INTL FALLS     LGT RAIN  62  57  83 E5        29.86F
WASKISH        LGT RAIN  66  59  77 SE6       29.85S
BIG FORK       CLOUDY    72  54  53 S12       29.87R
LONGVILLE      CLOUDY    70  52  52 S12G18    29.87F
GRAND RAPIDS   CLOUDY    72  48  43 S20G25    29.88S
CRANE LAKE     DRIZZLE   63  52  67 CALM      29.90F
COOK           CLOUDY    72  46  40 S5        29.89F
WALKER         FAIR      72  53  51 S10       29.86S
$$
MNZ012-019>021-037-022200-
   Northeast Minnesota

CITY           SKY/WX    TMP DP  RH WIND       PRES   REMARKS
DULUTH         MOSUNNY   72  49  44 S13       29.94F
ELY            CLOUDY    72  45  37 S14G20    29.91F
HIBBING        PTSUNNY   73  45  36 S12G21    29.89F
EVELETH        PTSUNNY   72  43  35 S14G20    29.91F
DULUTH HARBOR  SUNNY     52  43  71 NE9       29.96F
TWO HARBORS    PTSUNNY   72  52  49 SE3       29.93F
SILVER BAY     PTSUNNY   68  46  45 E5        29.94F
GRAND MARAIS     N/A     47  38  71 NE5       29.99F
G MARAIS ARPRT CLOUDY    59  37  44 S5        30.01F
$$
MNZ029>031-032-039>041-046>048-054>057-064-022200-
   West Central Minnesota

CITY           SKY/WX    TMP DP  RH WIND       PRES   REMARKS
FERGUS FALLS   PTSUNNY   79  57  47 S23G29    29.80F
WHEATON        MOSUNNY   79  59  50 S20G31    29.78F
MORRIS         PTSUNNY   81  57  44 S29G36    29.79F
ALEXANDRIA     PTSUNNY   75  54  47 S22G30    29.87F
ELBOW LAKE     FAIR      79  59  49 S26G32    29.81F
WADENA         CLOUDY    70  52  52 S21G29    29.86F
GLENWOOD       CLOUDY    75  55  50 S29       29.87F
APPLETON       MOSUNNY   82  55  39 S22G35    29.79F
BENSON         PTSUNNY   81  54  39 S21G29    29.82F
ORTONVILLE     MOSUNNY   81  61  50 S17G28    29.78F
MADISON        MOSUNNY   82  57  42 S30G37    29.79F
WILLMAR        FAIR      81  54  39 S13G29    29.88S
$$
MNZ033>034-036-042>043-049>051-058-059-022200-
   Central Minnesota

CITY           SKY/WX    TMP DP  RH WIND       PRES   REMARKS
ST CLOUD       CLOUDY    71  52  50 S21G30    29.89F
SAUK CENTRE    FAIR      75  53  45 SE17G26   29.89R
PAYNESVILLE    CLOUDY    72  49  43 SE20      29.88F
AITKIN         CLOUDY    73  52  46 S13       29.89S
PINE RIVER     CLOUDY    72  54  53 S17G25    29.91F
BRAINERD       CLOUDY    72  51  47 S15G25    29.90S
STAPLES        CLOUDY    70  48  46 S15G22    29.89F
LONG PRAIRIE   FAIR      72  54  53 SE16      29.90S
LITTLE FALLS   CLOUDY    70  48  46 S13G23    29.91R
LITCHFIELD     PTSUNNY   79  52  38 SE17G24   29.89F
BUFFALO        CLOUDY    73  53  49 SE14G21   29.94F
MAPLE LAKE     CLOUDY    74  56  54 SE12G18   29.93F
$$
MNZ037-044-045-052-053-022200-
   East Central Minnesota

CITY           SKY/WX    TMP DP  RH WIND       PRES   REMARKS
PRINCETON      CLOUDY    75  54  46 S16G22    29.93F
MORA           CLOUDY    73  50  43 S13G18    29.94F
CAMBRIDGE      PTSUNNY   75  55  50 S20       29.92F
RUSH CITY      PTSUNNY   74  53  46 S14G26    29.94F
MOOSE LAKE     MOSUNNY   73  50  43 S9G16     29.90F
HINCKLEY       FAIR      73  55  53 S12G22    29.93F
CLOQUET        MOSUNNY   73  45  35 S12G28    29.92F
MCGREGOR       PTSUNNY   72  50  46 S15G21    29.92R
$$
MNZ071>073-080-081-089-090-097-098-022200-
   Southwest Minnesota

CITY           SKY/WX    TMP DP  RH WIND       PRES   REMARKS
MONTEVIDEO     PTSUNNY   82  59  44 S15G29    29.83F
GRANITE FALLS  PTSUNNY   82  56  41 SE28G35   29.85F
CANBY          MOSUNNY   80  60  50 S23G31    29.82F
MARSHALL       PTSUNNY   81  57  44 S25G35    29.85F
REDWOOD FALLS  PTSUNNY   78  54  43 S24G32    29.88F
OLIVIA         PTSUNNY   73  50  43 S20G29    29.87F
PIPESTONE      MOSUNNY   79  59  50 S25G31    29.87F
WINDOM         PTSUNNY   73  54  49 SE16G22   29.92F
WORTHINGTON    PTSUNNY   75  55  50 S18G28    29.91F
JACKSON        MOSUNNY   73  54  49 SE16G24   29.94F
TRACY          PTSUNNY   79  58  48 S16G25    29.88F
SLAYTON        PTSUNNY   78  56  46 S23       29.90F
$$
MNZ065>067-074>077-082>085-091>093-022200-
   South Central Minnesota

CITY           SKY/WX    TMP DP  RH WIND       PRES   REMARKS
MANKATO        MOSUNNY   77  52  41 S17G25    29.94F
NEW ULM        MOSUNNY   79  50  36 S20       29.91F
ST JAMES       MOSUNNY   77  52  41 S18G30    29.94F
FAIRMONT       MOSUNNY   75  50  41 S24       29.95F
GLENCOE        PTSUNNY   80  53  40 SE14G23   29.92F
FARIBAULT      PTSUNNY   75  54  46 SE15G24   29.98F
OWATONNA       MOSUNNY   73  52  46 S16G26    29.98F
WASECA         MOSUNNY   77  52  41 SE15G24   29.98F
ALBERT LEA     SUNNY     75  52  43 SE18G26   29.98F
$$
MNZ078>079-086>088-094>096-022200-
   Southeast Minnesota

CITY           SKY/WX    TMP DP  RH WIND       PRES   REMARKS
ROCHESTER      CLOUDY    73  53  49 S16G24    30.03F
RED WING       CLOUDY    75  50  41 S13G23    29.98F
STANTON        PTSUNNY   75  54  48 S13G21    29.97F
DODGE CENTER   PTSUNNY   73  54  49 S21G26    30.00F
WINONA         CLOUDY    73  54  49 S5        30.04F
AUSTIN         MOSUNNY   72  54  53 SE10G22   30.00F
PRESTON        CLOUDY    71  51  49 S13       30.04F
$$
ABBREVIATIONS USED IN REMARKS
   TC - TEMPERATURES IN CELSIUS
  WCI - WIND CHILL INDEX
   HX - HEAT INDEX
  VSB - VISIBILITY
$$



USA.gov is the U.S. government's official web portal to all federal, state and local government web resources and services.